sat.trackr.live / text

‹ back to catalog

STARLINK-3080

NORAD 49161 · 2021-082AH

PAYLOAD ACTIVE UNKNOWN

§ Identity

Operator
Country
US
Launch date
2021-09-14
Launch site
AFWTR
Launch vehicle
Mass (kg)
RCS (m²)

Purposes: comms

External: N2YO · Heavens-Above · Gunter

§ Orbital elements

Epoch: 2026-09-20T03:39:24.864768Z

Period
96.11 min
Inclination
70.0000°
Eccentricity
0.0002866
Mean motion
14.98330352 rev/d
Perigee alt
570.1 km
Apogee alt
574.0 km
Semi-major
6,950.2 km
B*
5.9899e-5
RAAN
164.1261°
Arg perigee
268.4253°
Mean anomaly
91.6578°
Rev number
27,618

§ Raw data

STARLINK-30801 49161U 21082AH  26263.15237112  .00000622  00000+0  59899-4 0  99982 49161  70.0000 164.1261 0002866 268.4253  91.6578 14.98330352276181

JSON: /api/v1/satellites/49161 · /tle

For live sub-satellite position, see the globe view (requires WebGL).

§ Visibility from observer

Set your observer location to see the next 7 days of passes ≥ 10°. The values pass through the URL so the page stays shareable.

No JS? Fill the form by hand. The geolocation button needs JavaScript.